Wadesboro, NC

3:23 AM EST on February 26, 2017 (GMT -0500)
Anson County

Weather History for KAFP - September, 2013

Change the Weather History Date:

Tuesday, September 24, 2013

  Actual Average (KCLT) Record (KCLT)
Temperature  
Mean Temperature 66 °F -  
Max Temperature 78 °F 77 °F 95 °F (1895)
Min Temperature 53 °F 57 °F 43 °F (1999)
Growing Degree Days 16 (Base 50)    
Moisture  
Dew Point 55 °F    
Average Humidity 75    
Maximum Humidity 97    
Minimum Humidity 42    
Precipitation  
Precipitation 0.00 in - - ()
Sea Level Pressure  
Sea Level Pressure 30.03 in    
Wind  
Wind Speed 1 mph (ESE)    
Max Wind Speed 8 mph    
Max Gust Speed -    
Visibility 9 miles    
Events      
Averages and records for this station are not official NWS values.
T = Trace of Precipitation, MM = Missing Value Source: NWS Daily Summary

Daily Weather History Graph

Daily Weather History Graph

Search for Another Location

Airport or City:

Trip Planner

Search our weather history database for the weather conditions in past years. The results will help you decide how hot, cold, wet, or windy it might be!

Date:

Astronomy

Sep. 24, 2013 Rise Set
Actual Time 7:09 AM EDT 7:13 PM EDT
Civil Twilight 6:44 AM EDT 7:39 PM EDT
Nautical Twilight 6:15 AM EDT 8:08 PM EDT
Astronomical Twilight 5:45 AM EDT 8:38 PM EDT
Moon 10:42 PM EDT (9/24) 12:11 PM EDT (9/24)
Length of Visible Light 12h 54m
Length of Day
12h 03m
Waning Gibbous, 73% of the Moon is Illuminated
Sep 24
Waning Gibbous
Sep 26
Last Quarter
Oct 4
New
Oct 11
First Quarter
Oct 18
Full

Hourly Weather History & Observations

Time (EDT) Temp. Dew Point Humidity Pressure Visibility Wind Dir Wind Speed Gust Speed Precip Events Conditions
12:15 AM 55.9 °F 53.6 °F 92% 30.08 in 10.0 mi Calm Calm - N/A   Clear
12:35 AM 55.6 °F 53.4 °F 92% 30.08 in 10.0 mi Calm Calm - N/A   Clear
12:55 AM 55.0 °F 53.2 °F 94% 30.08 in 10.0 mi Calm Calm - N/A   Clear
1:15 AM 54.9 °F 52.7 °F 92% 30.08 in 10.0 mi Calm Calm - N/A   Clear
1:35 AM 55.0 °F 53.6 °F 95% 30.08 in 10.0 mi Calm Calm - N/A   Clear
1:55 AM 54.5 °F 52.7 °F 94% 30.08 in 10.0 mi Calm Calm - N/A   Clear
2:15 AM 55.0 °F 53.6 °F 95% 30.08 in 5.0 mi Calm Calm - N/A   Clear
2:35 AM 53.6 °F 52.5 °F 96% 30.08 in 10.0 mi Calm Calm - N/A   Clear
2:55 AM 53.6 °F 52.3 °F 95% 30.07 in 10.0 mi Calm Calm - N/A   Clear
3:35 AM 53.6 °F 52.3 °F 95% 30.07 in 10.0 mi Calm Calm - N/A   Overcast
3:55 AM 54.5 °F 53.6 °F 97% 30.07 in 10.0 mi Calm Calm - N/A   Overcast
4:15 AM 54.3 °F 53.1 °F 95% 30.07 in 7.0 mi Calm Calm - N/A   Overcast
4:35 AM 54.5 °F 53.4 °F 96% 30.07 in 7.0 mi Calm Calm - N/A   Mostly Cloudy
4:55 AM 54.1 °F 53.1 °F 96% 30.07 in 7.0 mi Calm Calm - N/A   Mostly Cloudy
5:35 AM 55.4 °F 54.5 °F 97% 30.08 in 7.0 mi Calm Calm - N/A   Overcast
5:55 AM 55.2 °F 54.1 °F 96% 30.08 in 7.0 mi Calm Calm - N/A   Overcast
6:15 AM 55.4 °F 54.1 °F 96% 30.08 in 7.0 mi Calm Calm - N/A   Overcast
6:35 AM 55.4 °F 54.1 °F 96% 30.08 in 7.0 mi Calm Calm - N/A   Overcast
6:55 AM 55.0 °F 54.1 °F 97% 30.09 in 7.0 mi Calm Calm - N/A   Scattered Clouds
7:15 AM 54.7 °F 53.6 °F 96% 30.09 in 7.0 mi Calm Calm - N/A   Scattered Clouds
7:35 AM 54.3 °F 53.4 °F 97% 30.09 in 4.0 mi Calm Calm - N/A   Scattered Clouds
7:55 AM 55.0 °F 54.1 °F 97% 30.10 in 7.0 mi Calm Calm - N/A   Scattered Clouds
8:15 AM 56.7 °F 55.6 °F 96% 30.09 in 7.0 mi Calm Calm - N/A   Mostly Cloudy
8:35 AM 57.6 °F 55.9 °F 94% 30.10 in 10.0 mi Calm Calm - N/A   Clear
8:55 AM 59.0 °F 56.3 °F 91% 30.10 in 10.0 mi Calm Calm - N/A   Clear
9:15 AM 61.0 °F 57.4 °F 88% 30.10 in 10.0 mi Calm Calm - N/A   Scattered Clouds
9:35 AM 63.3 °F 57.6 °F 81% 30.10 in 10.0 mi North 3.5 mph - N/A   Scattered Clouds
9:55 AM 65.3 °F 56.7 °F 74% 30.10 in 10.0 mi Calm Calm - N/A   Scattered Clouds
10:15 AM 66.2 °F 57.4 °F 73% 30.10 in 10.0 mi Calm Calm - N/A   Scattered Clouds
10:35 AM 69.3 °F 57.0 °F 65% 30.10 in 10.0 mi Calm Calm - N/A   Clear
10:55 AM 71.1 °F 55.2 °F 57% 30.10 in 10.0 mi Calm Calm - N/A   Clear
11:15 AM 72.3 °F 54.0 °F 52% 30.09 in 10.0 mi SE 5.8 mph - N/A   Clear
11:35 AM 73.0 °F 52.5 °F 48% 30.08 in 10.0 mi SSE 8.1 mph - N/A   Clear
11:55 AM 73.4 °F 53.8 °F 50% 30.08 in 10.0 mi SSE 5.8 mph - N/A   Clear
12:15 PM 73.2 °F 53.1 °F 49% 30.07 in 10.0 mi South 5.8 mph - N/A   Clear
12:35 PM 75.2 °F 53.2 °F 46% 30.05 in 10.0 mi East 5.8 mph - N/A   Clear
12:55 PM 75.2 °F 53.2 °F 46% 30.05 in 10.0 mi Calm Calm - N/A   Scattered Clouds
1:15 PM 75.9 °F 53.8 °F 46% 30.04 in 10.0 mi ESE 4.6 mph - N/A   Scattered Clouds
1:55 PM 75.2 °F 53.4 °F 47% 30.02 in 10.0 mi Calm Calm - N/A   Mostly Cloudy
2:15 PM 77.4 °F 53.1 °F 43% 30.02 in 10.0 mi North 4.6 mph - N/A   Mostly Cloudy
2:35 PM 75.4 °F 52.7 °F 45% 30.01 in 10.0 mi Calm Calm - N/A   Mostly Cloudy
2:55 PM 75.4 °F 53.2 °F 46% 30.00 in 10.0 mi ESE 3.5 mph - N/A   Mostly Cloudy
3:15 PM 77.0 °F 52.9 °F 43% 30.00 in 10.0 mi SSW 3.5 mph - N/A   Scattered Clouds
3:35 PM 78.1 °F 53.1 °F 42% 29.99 in 10.0 mi South 3.5 mph - N/A   Mostly Cloudy
3:55 PM 78.6 °F 53.4 °F 42% 29.99 in 10.0 mi NNE 3.5 mph - N/A   Overcast
4:15 PM 76.5 °F 54.1 °F 46% 29.98 in 10.0 mi NE 4.6 mph - N/A   Mostly Cloudy
4:35 PM 75.9 °F 54.7 °F 48% 29.98 in 10.0 mi NE 3.5 mph - N/A   Scattered Clouds
4:55 PM 77.2 °F 53.2 °F 43% 29.97 in 10.0 mi North 3.5 mph - N/A   Clear
5:15 PM 77.7 °F 54.0 °F 44% 29.97 in 10.0 mi Calm Calm - N/A   Scattered Clouds
5:35 PM 77.2 °F 54.1 °F 45% 29.96 in 10.0 mi South 3.5 mph - N/A   Overcast
5:55 PM 77.0 °F 53.2 °F 44% 29.96 in 10.0 mi Calm Calm - N/A   Overcast
6:15 PM 76.6 °F 53.8 °F 45% 29.96 in 10.0 mi Calm Calm - N/A   Overcast
6:35 PM 75.6 °F 54.7 °F 48% 29.96 in 10.0 mi Calm Calm - N/A   Scattered Clouds
6:55 PM 73.4 °F 57.0 °F 56% 29.96 in 10.0 mi Calm Calm - N/A   Clear
7:15 PM 70.3 °F 59.2 °F 68% 29.96 in 10.0 mi Calm Calm - N/A   Clear
7:35 PM 67.8 °F 60.3 °F 77% 29.96 in 10.0 mi Calm Calm - N/A   Clear
7:55 PM 66.0 °F 59.2 °F 79% 29.96 in 10.0 mi Calm Calm - N/A   Clear
8:15 PM 64.6 °F 59.9 °F 85% 29.96 in 10.0 mi Calm Calm - N/A   Clear
8:35 PM 63.9 °F 59.7 °F 86% 29.96 in 10.0 mi Calm Calm - N/A   Clear
8:55 PM 62.6 °F 59.0 °F 88% 29.96 in 10.0 mi Calm Calm - N/A   Clear
9:15 PM 61.9 °F 59.4 °F 91% 29.96 in 10.0 mi Calm Calm - N/A   Clear
9:35 PM 60.8 °F 58.3 °F 91% 29.96 in 10.0 mi Calm Calm - N/A   Clear
9:55 PM 60.6 °F 58.5 °F 93% 29.96 in 10.0 mi Calm Calm - N/A   Clear
10:15 PM 59.4 °F 57.0 °F 92% 29.97 in 10.0 mi Calm Calm - N/A   Clear
10:35 PM 59.5 °F 57.2 °F 92% 29.96 in 10.0 mi Calm Calm - N/A   Clear
10:55 PM 59.0 °F 56.7 °F 92% 29.97 in 10.0 mi Calm Calm - N/A   Clear
11:15 PM 59.0 °F 57.2 °F 94% 29.96 in 10.0 mi Calm Calm - N/A   Clear
11:35 PM 58.3 °F 56.3 °F 93% 29.96 in 10.0 mi Calm Calm - N/A   Clear
11:55 PM 57.6 °F 55.4 °F 92% 29.96 in 10.0 mi Calm Calm - N/A   Mostly Cloudy